STARLINK-5264 (54206 NORAD) Tracking and Keplerian Element Data

This shows tracking and keplerian element data for the satellite.

Feedback or suggestion? Click here.




ElementValue
Catalog54206
NameSTARLINK-5264
Epoch Orbit402
Epoch Day324.91667824
Epoch Year2022
RAAN25.2896
Inclination53.2159
Eccentricity0.0002309
Argument of Perigee22.2787
Mean Anonmoly137.2972
Mean Motion15.73158301
Decay Rate0.00038737
L11 54206U 22141BB 22324.91667824 .00038737 00000+0 27963-3 0 9990
L22 54206 53.2159 25.2896 0002309 22.2787 137.2972 15.73158301 4029



Live tracking and technical data element details for STARLINK-5264 (NORAD 54206). STARLINK-5264 can be tracked NOW for your location showing map with azimuth and elevation plus other details from your city location.







IsCatalogInMostPopularTable: catalog: 54206, numindb: 7
Update: records affected: 1



GetName: 54206 STARLINK-5264

Hit Count: updated at: Sun, 04 Dec 2022 22:04:31 GMT